TimeCDT,TemperatureF,Dew PointF,Humidity,Sea Level PressureIn,VisibilityMPH,Wind Direction,Wind SpeedMPH,Gust SpeedMPH,PrecipitationIn,Events,Conditions,WindDirDegrees,DateUTC
12:15 AM,80.6,77.0,89,29.86,5.0,SE,5.8,-,N/A,,Mostly Cloudy,140,2013-09-28 05:15:00
12:35 AM,80.6,77.0,89,29.87,5.0,SSE,5.8,-,N/A,,Overcast,150,2013-09-28 05:35:00
12:55 AM,79.9,76.5,89,29.87,5.0,SSE,4.6,-,N/A,,Mostly Cloudy,150,2013-09-28 05:55:00
1:15 AM,79.7,76.5,90,29.86,5.0,SE,5.8,-,N/A,,Mostly Cloudy,140,2013-09-28 06:15:00
1:35 AM,79.0,76.1,91,29.86,5.0,SE,5.8,-,N/A,,Scattered Clouds,140,2013-09-28 06:35:00
1:55 AM,78.8,76.1,91,29.86,5.0,SE,6.9,-,N/A,,Scattered Clouds,140,2013-09-28 06:55:00
2:15 AM,78.4,75.7,91,29.86,5.0,SE,8.1,-,N/A,,Scattered Clouds,140,2013-09-28 07:15:00
2:35 AM,78.1,75.4,91,29.86,5.0,SE,6.9,-,N/A,,Scattered Clouds,140,2013-09-28 07:35:00
2:55 AM,77.9,75.2,91,29.86,5.0,SE,5.8,-,N/A,,Scattered Clouds,140,2013-09-28 07:55:00
3:15 AM,77.5,75.2,92,29.85,5.0,SE,5.8,-,N/A,,Clear,130,2013-09-28 08:15:00
3:35 AM,77.4,74.8,92,29.85,5.0,SE,4.6,-,N/A,,Clear,140,2013-09-28 08:35:00
3:55 AM,77.2,74.8,92,29.85,5.0,SE,6.9,-,N/A,,Clear,130,2013-09-28 08:55:00
4:15 AM,77.2,74.7,92,29.85,5.0,SE,5.8,-,N/A,,Clear,130,2013-09-28 09:15:00
4:35 AM,77.0,74.5,92,29.84,7.0,SE,6.9,-,N/A,,Clear,130,2013-09-28 09:35:00
4:55 AM,77.0,74.5,92,29.84,7.0,SE,5.8,-,N/A,,Clear,130,2013-09-28 09:55:00
5:15 AM,77.0,74.3,91,29.84,7.0,ESE,5.8,-,N/A,,Clear,120,2013-09-28 10:15:00
5:35 AM,77.0,74.3,91,29.85,7.0,ESE,5.8,-,N/A,,Clear,110,2013-09-28 10:35:00
5:55 AM,76.6,73.9,91,29.85,7.0,ESE,5.8,-,N/A,,Clear,110,2013-09-28 10:55:00
6:15 AM,76.5,73.9,92,29.85,7.0,East,4.6,-,N/A,,Clear,100,2013-09-28 11:15:00
6:35 AM,76.1,73.8,92,29.86,7.0,East,5.8,-,N/A,,Clear,100,2013-09-28 11:35:00
6:55 AM,75.6,73.4,93,29.86,7.0,East,4.6,-,N/A,,Clear,100,2013-09-28 11:55:00
7:15 AM,74.8,72.9,94,29.87,7.0,ESE,4.6,-,N/A,,Clear,110,2013-09-28 12:15:00
7:35 AM,74.7,72.7,94,29.87,5.0,ESE,4.6,-,N/A,,Clear,110,2013-09-28 12:35:00
7:55 AM,74.7,72.9,94,29.88,4.0,ESE,3.5,-,N/A,,Clear,120,2013-09-28 12:55:00
8:15 AM,75.2,73.4,94,29.88,5.0,SE,4.6,-,N/A,,Clear,130,2013-09-28 13:15:00
8:35 AM,76.1,73.6,92,29.89,5.0,SE,5.8,-,N/A,,Clear,140,2013-09-28 13:35:00
8:55 AM,77.2,73.8,89,29.90,5.0,SE,8.1,-,N/A,,Clear,140,2013-09-28 13:55:00
9:15 AM,77.9,73.9,88,29.90,7.0,SE,9.2,-,N/A,,Scattered Clouds,140,2013-09-28 14:15:00
9:35 AM,79.2,74.3,85,29.90,7.0,SSE,10.4,-,N/A,,Mostly Cloudy,150,2013-09-28 14:35:00
9:55 AM,80.8,74.1,80,29.91,10.0,SSE,13.8,17.3,N/A,,Scattered Clouds,150,2013-09-28 14:55:00
10:15 AM,82.2,74.1,76,29.91,10.0,South,11.5,18.4,N/A,,Mostly Cloudy,170,2013-09-28 15:15:00
10:35 AM,82.8,74.1,75,29.91,10.0,South,12.7,18.4,N/A,,Overcast,180,2013-09-28 15:35:00
10:55 AM,83.1,73.9,74,29.92,10.0,South,11.5,18.4,N/A,,Mostly Cloudy,180,2013-09-28 15:55:00
11:15 AM,85.3,73.6,68,29.91,10.0,South,12.7,17.3,N/A,,Scattered Clouds,170,2013-09-28 16:15:00
11:35 AM,86.4,73.0,64,29.91,10.0,SSE,13.8,-,N/A,,Scattered Clouds,150,2013-09-28 16:35:00
11:55 AM,87.8,73.6,63,29.91,10.0,SSE,13.8,20.7,N/A,,Scattered Clouds,160,2013-09-28 16:55:00
12:15 PM,89.2,73.0,59,29.91,10.0,SSE,10.4,18.4,N/A,,Scattered Clouds,160,2013-09-28 17:15:00
12:35 PM,90.9,71.8,53,29.91,10.0,South,19.6,-,N/A,,Scattered Clouds,170,2013-09-28 17:35:00
12:55 PM,90.7,71.6,53,29.90,10.0,SSE,16.1,-,N/A,,Scattered Clouds,160,2013-09-28 17:55:00
1:15 PM,91.8,71.2,51,29.89,10.0,South,19.6,25.3,N/A,,Scattered Clouds,170,2013-09-28 18:15:00
1:35 PM,91.9,72.0,52,29.88,10.0,SSE,13.8,18.4,N/A,,Mostly Cloudy,160,2013-09-28 18:35:00
1:55 PM,90.9,71.4,53,29.88,10.0,South,15.0,18.4,N/A,,Mostly Cloudy,180,2013-09-28 18:55:00
2:15 PM,90.9,72.0,54,29.87,10.0,SSE,11.5,-,N/A,,Overcast,160,2013-09-28 19:15:00
2:35 PM,93.0,71.8,50,29.87,10.0,South,15.0,20.7,N/A,,Mostly Cloudy,170,2013-09-28 19:35:00
2:55 PM,93.4,72.0,50,29.86,10.0,SSE,13.8,-,N/A,,Mostly Cloudy,160,2013-09-28 19:55:00
3:15 PM,92.7,71.4,50,29.85,10.0,South,11.5,17.3,N/A,,Scattered Clouds,180,2013-09-28 20:15:00
3:35 PM,93.0,71.4,49,29.85,10.0,South,10.4,16.1,N/A,,Mostly Cloudy,170,2013-09-28 20:35:00
3:55 PM,92.3,70.3,49,29.84,10.0,SSE,11.5,-,N/A,,Mostly Cloudy,160,2013-09-28 20:55:00
4:15 PM,93.0,70.0,47,29.83,10.0,South,10.4,-,N/A,,Mostly Cloudy,170,2013-09-28 21:15:00
4:35 PM,92.7,69.8,47,29.82,10.0,SE,9.2,-,N/A,,Scattered Clouds,140,2013-09-28 21:35:00
4:55 PM,93.4,69.8,46,29.82,10.0,SSE,11.5,-,N/A,,Scattered Clouds,160,2013-09-28 21:55:00
5:15 PM,94.5,69.4,44,29.82,10.0,SSE,9.2,16.1,N/A,,Scattered Clouds,160,2013-09-28 22:15:00
5:35 PM,94.1,69.1,44,29.82,10.0,SE,10.4,-,N/A,,Scattered Clouds,140,2013-09-28 22:35:00
5:55 PM,93.6,69.6,46,29.82,10.0,SE,11.5,-,N/A,,Clear,140,2013-09-28 22:55:00
6:15 PM,93.2,69.8,46,29.82,10.0,SSE,11.5,-,N/A,,Clear,150,2013-09-28 23:15:00
6:35 PM,92.5,68.7,46,29.82,10.0,SE,10.4,-,N/A,,Clear,140,2013-09-28 23:35:00
6:55 PM,91.6,70.2,49,29.83,10.0,SSE,6.9,-,N/A,,Clear,150,2013-09-28 23:55:00
7:15 PM,88.9,76.1,66,29.84,10.0,ESE,11.5,18.4,N/A,,Clear,110,2013-09-29 00:15:00
7:35 PM,87.1,76.1,70,29.85,10.0,ESE,11.5,18.4,N/A,,Clear,120,2013-09-29 00:35:00
7:55 PM,86.0,76.1,72,29.86,10.0,ESE,9.2,-,N/A,,Clear,110,2013-09-29 00:55:00
8:15 PM,84.4,76.1,76,29.88,10.0,ESE,9.2,-,N/A,,Clear,110,2013-09-29 01:15:00
8:35 PM,83.7,76.1,78,29.88,10.0,ESE,8.1,-,N/A,,Clear,110,2013-09-29 01:35:00
8:55 PM,82.9,75.6,78,29.90,10.0,ESE,9.2,-,N/A,,Clear,120,2013-09-29 01:55:00
9:15 PM,82.4,75.6,80,29.90,10.0,ESE,8.1,-,N/A,,Clear,120,2013-09-29 02:15:00
9:35 PM,82.2,75.4,80,29.91,10.0,SE,8.1,-,N/A,,Clear,130,2013-09-29 02:35:00
9:55 PM,81.7,75.2,81,29.91,10.0,ESE,6.9,-,N/A,,Clear,120,2013-09-29 02:55:00
10:15 PM,81.5,75.2,81,29.92,10.0,SE,10.4,-,N/A,,Clear,140,2013-09-29 03:15:00
10:35 PM,81.0,75.0,82,29.93,10.0,SE,9.2,-,N/A,,Clear,130,2013-09-29 03:35:00
10:55 PM,80.8,74.8,82,29.93,10.0,SE,6.9,-,N/A,,Clear,140,2013-09-29 03:55:00
11:15 PM,80.6,74.7,82,29.93,10.0,SE,8.1,-,N/A,,Clear,130,2013-09-29 04:15:00
11:35 PM,80.1,74.7,83,29.94,10.0,SE,9.2,-,N/A,,Clear,140,2013-09-29 04:35:00
11:55 PM,79.7,74.5,84,29.95,10.0,South,4.6,-,N/A,,Clear,170,2013-09-29 04:55:00